Regional Weather Roundup
Issued by NWS Cleveland, OH

Home | Current Version | Previous Version | Graphics & Text | Print | Product List | Glossary On
Versions: 1 2 3 4 5 6 7 8 9 10 11 12 13 14 15 16 17 18 19 20 21 22 23 24 25 26 27 28 29 30 31 32 33 34 35 36 37 38 39 40 41 42 43 44 45 46 47 48 49 50
000
ASUS41 KCLE 230112
RWRCLE
OHIO REGIONAL WEATHER ROUNDUP
NATIONAL WEATHER SERVICE WILMINGTON, OH
900 PM EDT SUN APR 22 2018

NOTE: "FAIR" INDICATES FEW OR NO CLOUDS BELOW 12,000 FEET WITH NO
SIGNIFICANT WEATHER AND/OR OBSTRUCTIONS TO VISIBILITY.

OHZ001>008-015>018-024>027-034-035-043-044-230200-
   NORTHWEST OHIO

CITY           SKY/WX    TMP DP  RH WIND       PRES   REMARKS
DEFIANCE       FAIR      50  22  33 E9        30.29R
FINDLAY        FAIR      51  19  28 NE16      30.26S
TOLEDO EXPRESS FAIR      49  21  33 E10       30.30S
TOLEDO EXEC    FAIR      46  25  43 E5        30.32R
LIMA           FAIR      50  26  39 NE9       30.25R
$$

OHZ009>014-019>023-028>033-038-089-230200-
   NORTHEAST OHIO

CITY           SKY/WX    TMP DP  RH WIND       PRES   REMARKS
CLE-HOPKINS    FAIR      49  28  44 N9        30.31R
CLE-LAKEFRONT  FAIR      45  36  70 NE12      30.29R
CUY CO. ARPT   PTCLDY    52  25  35 NE12      30.31R
LORAIN-ELYRIA  FAIR      48  22  35 NE15      30.29R
ASHTABULA      FAIR      51  20  29 NE5       30.31S
AKRON-CANTON   FAIR      55  27  34 NE10      30.27R
WOOSTER        FAIR      50  32  50 N10       30.26R
MANSFIELD      FAIR      50  26  39 N8        30.26R
YOUNGSTOWN     FAIR      53  26  35 N9        30.28R
$$

OHZ042-051>053-060>062-070>072-077>081-230200-
  SOUTHWEST OHIO

CITY           SKY/WX    TMP DP  RH WIND       PRES   REMARKS
CINC-COVINGTON MOCLDY    62  26  25 NE10      30.15F
CINC-LUNKEN    FAIR      57  39  51 NE6       30.16F
HAMILTON       FAIR      56  32  40 NE7       30.18S
DAYTON         FAIR      54  32  43 NE9       30.21S
WRIGHT-PAT AFB FAIR      56  29  36 NE7       30.19F
DAYTON GENERAL FAIR      59  30  33 NE8       30.17F
WILMINGTON     FAIR      55  35  47 NE10      30.18S
$$

OHZ036-037-039>041-045>050-054>059-063>069-073>076-082>088-230200-
  CENTRAL AND SOUTHEAST OHIO

CITY           SKY/WX    TMP DP  RH WIND       PRES   REMARKS
COLUMBUS       FAIR      60  26  27 NE5       30.21S
OSU AIRPORT    FAIR      59  25  27 NE5       30.21S
BOLTON FIELD   FAIR      55  31  39 NE3       30.22R
RICKENBACK AFB FAIR      55  31  39 NE8       30.20S
NEWARK         FAIR      54  33  45 CALM      30.21R
MARION         FAIR      50  29  44 NE13      30.25R
LANCASTER      FAIR      55  37  50 NE9       30.21S
ZANESVILLE     FAIR      63  27  25 CALM      30.23
NEW PHILLY     FAIR      56  33  42 NE5       30.24S
$$



USA.gov is the U.S. government's official web portal to all federal, state and local government web resources and services.